TimeCDT,TemperatureF,Dew PointF,Humidity,Sea Level PressureIn,VisibilityMPH,Wind Direction,Wind SpeedMPH,Gust SpeedMPH,PrecipitationIn,Events,Conditions,WindDirDegrees,DateUTC
12:14 AM,67.3,63.5,88,29.55,7.0,East,4.6,-,0.02,Rain,Light Rain,90,2013-05-20 05:14:00
12:34 AM,66.6,62.8,88,29.55,10.0,East,6.9,-,0.03,Rain,Light Rain,80,2013-05-20 05:34:00
12:54 AM,66.2,62.8,89,29.58,10.0,SW,6.9,-,0.03,,Overcast,220,2013-05-20 05:54:00
1:14 AM,65.8,63.3,92,29.58,10.0,SW,3.5,-,N/A,Rain,Light Rain,230,2013-05-20 06:14:00
1:34 AM,65.5,63.5,93,29.58,10.0,SE,3.5,-,0.01,Rain,Light Rain,140,2013-05-20 06:34:00
1:54 AM,65.3,63.5,94,29.56,5.0,ESE,4.6,-,0.05,Rain,Rain,120,2013-05-20 06:54:00
2:14 AM,64.9,63.0,93,29.55,7.0,SE,3.5,-,0.02,Rain,Light Rain,140,2013-05-20 07:14:00
2:34 AM,64.8,63.0,94,29.56,10.0,SSE,5.8,-,0.03,Rain,Light Rain,150,2013-05-20 07:34:00
2:54 AM,64.6,63.0,94,29.56,10.0,SSE,6.9,-,0.04,Rain,Light Rain,150,2013-05-20 07:54:00
3:14 AM,64.4,62.8,94,29.54,10.0,SSE,3.5,-,N/A,Rain,Light Rain,160,2013-05-20 08:14:00
3:34 AM,64.4,62.8,94,29.53,10.0,SSE,3.5,-,N/A,,Overcast,160,2013-05-20 08:34:00
3:54 AM,64.4,62.6,94,29.52,10.0,SE,3.5,-,N/A,,Overcast,140,2013-05-20 08:54:00
4:14 AM,64.4,62.6,94,29.52,10.0,ESE,4.6,-,N/A,,Mostly Cloudy,120,2013-05-20 09:14:00
4:34 AM,64.4,62.8,94,29.53,10.0,Calm,Calm,-,N/A,,Overcast,0,2013-05-20 09:34:00
4:54 AM,64.4,62.8,94,29.51,10.0,Calm,Calm,-,N/A,,Overcast,0,2013-05-20 09:54:00
5:14 AM,64.4,62.6,94,29.52,10.0,Calm,Calm,-,N/A,,Overcast,0,2013-05-20 10:14:00
5:34 AM,64.4,62.8,94,29.53,7.0,SSE,4.6,-,N/A,,Overcast,150,2013-05-20 10:34:00
5:54 AM,64.4,62.8,94,29.54,10.0,SE,4.6,-,N/A,,Overcast,130,2013-05-20 10:54:00
6:14 AM,64.4,62.6,94,29.55,10.0,SSE,4.6,-,N/A,,Overcast,160,2013-05-20 11:14:00
6:34 AM,64.4,62.6,94,29.55,10.0,SSE,5.8,-,N/A,,Overcast,160,2013-05-20 11:34:00
7:14 AM,64.0,62.6,95,29.55,7.0,SSE,8.1,-,N/A,,Overcast,160,2013-05-20 12:14:00
7:34 AM,64.0,62.6,95,29.56,10.0,SSE,9.2,18.4,N/A,,Overcast,160,2013-05-20 12:34:00
7:54 AM,64.9,61.9,90,29.56,10.0,SSE,11.5,16.1,N/A,,Overcast,160,2013-05-20 12:54:00
8:14 AM,66.7,61.5,83,29.55,10.0,South,11.5,-,N/A,,Mostly Cloudy,170,2013-05-20 13:14:00
8:34 AM,67.1,60.6,80,29.56,10.0,South,11.5,17.3,N/A,,Scattered Clouds,180,2013-05-20 13:34:00
8:54 AM,66.7,60.6,81,29.55,10.0,South,10.4,17.3,N/A,,Scattered Clouds,190,2013-05-20 13:54:00
9:14 AM,67.5,59.5,76,29.55,10.0,South,11.5,18.4,N/A,,Scattered Clouds,180,2013-05-20 14:14:00
9:34 AM,68.5,58.5,70,29.56,10.0,South,13.8,18.4,N/A,,Mostly Cloudy,190,2013-05-20 14:34:00
10:34 AM,70.2,58.8,67,29.55,10.0,SSE,11.5,17.3,N/A,,Scattered Clouds,160,2013-05-20 15:34:00
10:54 AM,71.1,58.6,65,29.55,10.0,SSE,10.4,-,N/A,,Scattered Clouds,160,2013-05-20 15:54:00
11:14 AM,70.9,58.6,65,29.55,10.0,SSE,11.5,17.3,N/A,,Mostly Cloudy,160,2013-05-20 16:14:00
11:34 AM,69.8,58.8,68,29.55,10.0,SSE,11.5,18.4,N/A,,Overcast,150,2013-05-20 16:34:00
11:54 AM,71.2,59.7,67,29.54,10.0,SE,9.2,-,N/A,,Mostly Cloudy,140,2013-05-20 16:54:00
12:14 PM,71.2,58.5,64,29.55,10.0,SSE,16.1,21.9,N/A,,Mostly Cloudy,160,2013-05-20 17:14:00
12:34 PM,72.7,59.4,63,29.54,10.0,South,12.7,19.6,N/A,,Mostly Cloudy,180,2013-05-20 17:34:00
1:14 PM,69.8,58.8,68,29.55,5.0,South,21.9,25.3,N/A,Rain,Rain,190,2013-05-20 18:14:00
1:54 PM,63.9,62.1,94,29.56,10.0,South,11.5,18.4,0.06,,Mostly Cloudy,190,2013-05-20 18:54:00
2:14 PM,65.3,63.5,94,29.55,10.0,South,11.5,-,N/A,,Mostly Cloudy,190,2013-05-20 19:14:00
2:34 PM,65.7,63.9,94,29.55,10.0,South,13.8,19.6,N/A,,Mostly Cloudy,190,2013-05-20 19:34:00
2:54 PM,65.8,63.7,93,29.55,10.0,South,16.1,24.2,N/A,,Mostly Cloudy,190,2013-05-20 19:54:00
3:14 PM,70.3,63.3,78,29.56,10.0,South,12.7,19.6,N/A,,Mostly Cloudy,180,2013-05-20 20:14:00
3:34 PM,72.1,61.2,68,29.56,10.0,SSW,15.0,20.7,N/A,,Scattered Clouds,200,2013-05-20 20:34:00
3:54 PM,70.2,60.8,72,29.56,10.0,SW,11.5,18.4,N/A,,Mostly Cloudy,220,2013-05-20 20:54:00
4:14 PM,72.3,59.7,64,29.56,10.0,South,15.0,21.9,N/A,,Mostly Cloudy,190,2013-05-20 21:14:00
4:34 PM,71.2,57.9,63,29.58,10.0,SSW,16.1,28.8,N/A,,Mostly Cloudy,200,2013-05-20 21:34:00
4:54 PM,73.4,56.5,55,29.57,10.0,SSW,19.6,27.6,N/A,,Scattered Clouds,210,2013-05-20 21:54:00
5:14 PM,73.0,57.2,57,29.57,10.0,South,13.8,23.0,N/A,,Scattered Clouds,190,2013-05-20 22:14:00
5:34 PM,72.5,56.5,57,29.58,10.0,SSW,17.3,21.9,N/A,,Scattered Clouds,210,2013-05-20 22:34:00
5:54 PM,73.4,55.6,54,29.58,10.0,SSW,19.6,27.6,N/A,,Clear,200,2013-05-20 22:54:00
6:14 PM,73.0,56.8,57,29.58,10.0,South,11.5,23.0,N/A,,Scattered Clouds,190,2013-05-20 23:14:00
6:34 PM,72.1,57.4,60,29.58,10.0,South,10.4,-,N/A,,Scattered Clouds,190,2013-05-20 23:34:00
6:54 PM,72.5,57.0,58,29.58,10.0,South,13.8,21.9,N/A,,Mostly Cloudy,190,2013-05-20 23:54:00
7:14 PM,72.1,56.7,58,29.58,10.0,South,6.9,17.3,N/A,,Overcast,170,2013-05-21 00:14:00
7:34 PM,71.4,57.6,62,29.58,10.0,SSE,6.9,-,N/A,,Scattered Clouds,160,2013-05-21 00:34:00
7:54 PM,71.1,57.6,62,29.58,10.0,SSE,5.8,-,N/A,,Clear,160,2013-05-21 00:54:00
8:14 PM,70.3,57.7,64,29.58,10.0,SSE,3.5,-,N/A,,Scattered Clouds,160,2013-05-21 01:14:00
8:34 PM,69.8,58.1,66,29.57,10.0,Calm,Calm,-,N/A,,Overcast,0,2013-05-21 01:34:00
9:14 PM,70.3,58.5,66,29.57,10.0,Calm,Calm,-,N/A,,Overcast,0,2013-05-21 02:14:00
9:34 PM,69.8,58.3,67,29.57,10.0,SSE,3.5,-,N/A,,Overcast,150,2013-05-21 02:34:00
9:54 PM,69.8,58.6,68,29.57,10.0,Calm,Calm,-,N/A,,Overcast,0,2013-05-21 02:54:00
10:14 PM,69.4,58.5,68,29.57,10.0,Calm,Calm,-,N/A,Thunderstorm,Overcast,0,2013-05-21 03:14:00
10:34 PM,69.1,58.5,69,29.56,10.0,Calm,Calm,-,N/A,,Overcast,0,2013-05-21 03:34:00
10:54 PM,68.0,58.6,72,29.57,10.0,WSW,18.4,25.3,N/A,Rain,Light Rain,240,2013-05-21 03:54:00
11:14 PM,61.0,57.2,87,29.57,7.0,WSW,9.2,-,0.07,Rain-Thunderstorm,Rain,250,2013-05-21 04:14:00
11:34 PM,60.3,58.3,93,29.55,7.0,Calm,Calm,-,0.16,Rain,Light Rain,0,2013-05-21 04:34:00
11:54 PM,60.6,58.8,94,29.55,10.0,Calm,Calm,-,0.17,Rain,Light Rain,0,2013-05-21 04:54:00